Year,Month,Day,Hour,Minute,Value (Times are PST for temperature in C)
2015,05,23,11,11,15.30
2015,05,23,11,12,15.30
2015,05,23,11,13,15.30
2015,05,23,11,14,15.30
2015,05,23,11,15,15.30
2015,05,23,11,16,15.30
2015,05,23,11,17,15.30
2015,05,23,11,18,15.30
2015,05,23,11,19,15.30
2015,05,23,11,20,15.30
2015,05,23,11,21,15.30
2015,05,23,11,22,15.30
2015,05,23,11,23,15.30
2015,05,23,11,24,15.30
2015,05,23,11,25,15.30
2015,05,23,11,26,15.30
2015,05,23,11,27,15.30
2015,05,23,11,28,15.30
2015,05,23,11,43,15.50
2015,05,23,11,44,15.50
2015,05,23,11,45,15.50
2015,05,23,11,46,15.50
2015,05,23,11,47,15.50
2015,05,23,11,48,15.50
2015,05,23,11,49,15.50
2015,05,23,11,50,15.50
2015,05,23,11,51,15.50
2015,05,23,11,52,15.50
2015,05,23,11,53,15.50
2015,05,23,11,54,15.50
2015,05,23,11,55,15.50
2015,05,23,11,56,15.50
2015,05,23,13,20,17.30
2015,05,23,13,21,17.20
2015,05,23,13,22,17.10
2015,05,23,13,23,17.10
2015,05,23,13,24,17.10
2015,05,23,13,25,17.10
2015,05,23,13,26,17.00
2015,05,23,13,27,16.80
2015,05,23,13,28,16.80
2015,05,23,13,29,16.80
2015,05,23,13,30,16.80
2015,05,23,13,31,16.80
2015,05,23,13,32,16.70
2015,05,23,13,33,16.70
2015,05,23,13,34,16.80
2015,05,23,13,35,17.00
2015,05,23,13,36,17.10
2015,05,23,13,37,17.20
2015,05,23,13,38,17.10
2015,05,23,13,39,17.00
2015,05,23,13,40,16.90
2015,05,23,13,41,16.80
2015,05,23,13,42,16.90
2015,05,23,13,43,17.00
2015,05,23,13,44,17.00
2015,05,23,13,45,16.90
2015,05,23,13,46,16.80
2015,05,23,13,47,16.70
2015,05,23,13,48,16.60
2015,05,23,13,49,16.50
2015,05,23,13,50,16.50
2015,05,23,13,51,16.40
2015,05,23,13,52,16.50
2015,05,23,13,53,16.40
2015,05,23,13,54,16.40
2015,05,23,13,55,16.40
2015,05,23,13,56,16.50
2015,05,23,13,57,16.60
2015,05,23,13,58,16.50
2015,05,23,13,59,16.30
2015,05,23,14,00,16.40
2015,05,23,14,01,16.70
2015,05,23,14,02,16.90
2015,05,23,14,03,16.90
2015,05,23,14,04,16.90
2015,05,23,14,05,16.70
2015,05,23,14,06,16.60
2015,05,23,14,07,16.60
2015,05,23,14,08,16.80
2015,05,23,14,09,17.00
2015,05,23,14,10,17.10
2015,05,23,14,11,17.10
2015,05,23,14,12,17.10
2015,05,23,14,13,17.10
2015,05,23,14,14,17.10
2015,05,23,14,15,17.10
2015,05,23,14,16,17.10
2015,05,23,14,17,17.00
2015,05,23,14,18,16.90
2015,05,23,14,19,16.90
2015,05,23,14,20,17.00
2015,05,23,14,21,17.10
2015,05,23,14,22,17.10
2015,05,23,14,23,17.10
2015,05,23,14,24,17.10
2015,05,23,14,25,17.10
2015,05,23,14,26,17.10
2015,05,23,14,27,17.10
2015,05,23,14,28,17.10
2015,05,23,14,29,17.10
2015,05,23,14,30,17.10
2015,05,23,14,31,17.30
2015,05,23,14,32,17.10
2015,05,23,14,33,17.00
2015,05,23,14,34,17.00
2015,05,23,14,35,17.00
2015,05,23,14,36,16.90
2015,05,23,14,37,16.80
2015,05,23,14,38,16.80
2015,05,23,14,39,16.80
2015,05,23,14,40,16.80
2015,05,23,14,41,16.80
2015,05,23,14,42,16.70
2015,05,23,14,43,16.70
2015,05,23,14,44,16.70
2015,05,23,14,45,16.80
2015,05,23,14,46,16.90
2015,05,23,14,47,16.90
2015,05,23,14,48,17.00
2015,05,23,14,49,17.10
2015,05,23,14,50,17.00
2015,05,23,14,51,16.90
2015,05,23,14,52,16.80
2015,05,23,14,53,16.90
2015,05,23,14,54,16.90
2015,05,23,14,55,17.00
2015,05,23,14,56,17.10
2015,05,23,14,57,17.10
2015,05,23,14,58,17.00
2015,05,23,14,59,17.00
2015,05,23,15,00,17.00
2015,05,23,15,01,17.10
2015,05,23,15,02,17.10
2015,05,23,15,03,17.10
2015,05,23,15,04,17.30
2015,05,23,15,05,17.50
2015,05,23,15,06,17.70
2015,05,23,15,07,17.80
2015,05,23,15,08,17.70
2015,05,23,15,09,17.60
2015,05,23,15,10,17.60
2015,05,23,15,11,17.70
2015,05,23,15,12,17.80
2015,05,23,15,13,17.80
2015,05,23,15,14,17.70
2015,05,23,15,15,17.60
2015,05,23,15,16,17.50
2015,05,23,15,17,17.50
2015,05,23,15,18,17.70
2015,05,23,15,19,17.80
2015,05,23,15,20,17.90
2015,05,23,15,21,18.00
2015,05,23,15,22,18.10
2015,05,23,15,23,18.10
2015,05,23,15,24,18.10
2015,05,23,15,25,18.00
2015,05,23,15,26,17.90
2015,05,23,15,27,17.90
2015,05,23,15,28,17.80
2015,05,23,15,29,17.70
2015,05,23,15,30,17.70
2015,05,23,15,31,17.60
2015,05,23,15,32,17.50
2015,05,23,15,33,17.40
2015,05,23,15,34,17.40
2015,05,23,15,35,17.40
2015,05,23,15,36,17.40
2015,05,23,15,37,17.40
2015,05,23,15,38,17.50
2015,05,23,15,39,17.50
2015,05,23,15,40,17.60
2015,05,23,15,41,17.60
2015,05,23,15,42,17.60
2015,05,23,15,43,17.70
2015,05,23,15,44,17.80
2015,05,23,15,45,17.90
2015,05,23,15,46,17.80
2015,05,23,15,47,17.80
2015,05,23,15,48,17.80
2015,05,23,15,49,17.80
2015,05,23,15,50,17.80
2015,05,23,15,51,17.80
2015,05,23,15,52,17.80
2015,05,23,15,53,17.70
2015,05,23,15,54,17.80
2015,05,23,15,55,17.70
2015,05,23,15,56,17.50
2015,05,23,15,57,17.40
2015,05,23,15,58,17.40
2015,05,23,15,59,17.40
2015,05,23,16,00,17.40
2015,05,23,16,01,17.40
2015,05,23,16,02,17.50
2015,05,23,16,03,17.40
2015,05,23,16,04,17.50
2015,05,23,16,05,17.70
2015,05,23,16,06,17.60
2015,05,23,16,07,17.60
2015,05,23,16,08,17.70
2015,05,23,16,09,17.70
2015,05,23,16,10,17.60
2015,05,23,16,11,17.70
2015,05,23,16,12,17.70
2015,05,23,16,13,17.70
2015,05,23,16,14,17.50
2015,05,23,16,15,17.40
2015,05,23,16,16,17.40
2015,05,23,16,17,17.40
2015,05,23,16,18,17.50
2015,05,23,16,19,17.50
2015,05,23,16,20,17.40
2015,05,23,16,21,17.40
2015,05,23,16,22,17.40
2015,05,23,16,23,17.50
2015,05,23,16,24,17.60
2015,05,23,16,25,17.70
2015,05,23,16,26,17.70
2015,05,23,16,27,17.60
2015,05,23,16,28,17.50
2015,05,23,16,29,17.40
2015,05,23,16,30,17.40
2015,05,23,16,31,17.40
2015,05,23,16,32,17.50
2015,05,23,16,33,17.60
2015,05,23,16,34,17.70
2015,05,23,16,35,17.70
2015,05,23,16,36,17.90
2015,05,23,16,37,18.00
2015,05,23,16,38,18.00
2015,05,23,16,39,17.90
2015,05,23,16,40,17.80
2015,05,23,16,41,17.80
2015,05,23,16,42,17.80
2015,05,23,16,43,17.90
2015,05,23,16,44,17.90
2015,05,23,16,45,17.90
2015,05,23,16,46,17.90
2015,05,23,16,47,17.80
2015,05,23,16,48,17.80
2015,05,23,16,49,17.90
2015,05,23,16,50,18.00
2015,05,23,16,51,18.00
2015,05,23,16,52,17.90
2015,05,23,16,53,17.80
2015,05,23,16,54,17.80
2015,05,23,16,55,17.80
2015,05,23,16,56,17.80
2015,05,23,16,57,17.80
2015,05,23,16,58,17.80
2015,05,23,16,59,17.70
2015,05,23,17,00,17.70
2015,05,23,17,01,17.70
2015,05,23,17,02,17.70
2015,05,23,17,03,17.70
2015,05,23,17,04,17.70
2015,05,23,17,05,17.70
2015,05,23,17,06,17.70
2015,05,23,17,07,17.70
2015,05,23,17,08,17.70
2015,05,23,17,09,17.70
2015,05,23,17,10,17.70
2015,05,23,17,11,17.70
2015,05,23,17,12,17.70
2015,05,23,17,13,17.70
2015,05,23,17,14,17.70
2015,05,23,17,15,17.70
2015,05,23,17,32,17.80
2015,05,23,17,33,17.80
2015,05,23,17,34,17.80
2015,05,23,17,35,17.80
2015,05,23,17,36,17.80
2015,05,23,17,37,17.80
2015,05,23,17,38,17.80
2015,05,23,17,39,17.80
2015,05,23,17,40,17.80
2015,05,23,17,41,17.80
2015,05,23,17,42,17.80
2015,05,23,17,43,17.80
